Weather History for KLOT - October, 2013

Change the Weather History Date:

Friday, October 25, 2013

  Actual Average Record
Temperature  
Mean Temperature 37 °F 50 °F  
Max Temperature 50 °F 59 °F 76 °F (2004)
Min Temperature 24 °F 41 °F 24 °F (2013)
Degree Days  
Heating Degree Days 28 15  
Month to date heating degree days 299 288  
Since 1 July heating degree days 371 387  
Cooling Degree Days 0    
Month to date cooling degree days 30 12  
Year to date cooling degree days 950 859  
Moisture  
Dew Point 25 °F    
Average Humidity 63    
Maximum Humidity 94    
Minimum Humidity 36    
Precipitation  
Precipitation 0.00 in 0.11 in 0.58 in (2012)
Month to date precipitation 2.85 2.78  
Year to date precipitation 33.74 33.73  
Snow  
Snow 0.00 in 0.00 in - ()
Month to date snowfall T 0.0  
Since 1 July snowfall T 0.0  
Since 1 September snowfall T 0.0  
Snow Depth 0.00 in    
Sea Level Pressure  
Sea Level Pressure 30.29 in    
Wind  
Wind Speed 7 mph (WSW)    
Max Wind Speed 20 mph    
Max Gust Speed 28 mph    
Visibility 10 miles    
Events      
T = Trace of Precipitation, MM = Missing Value Source: NWS Daily Summary

Daily Weather History Graph

Daily Weather History Graph

Search for Another Location

Airport or City:

Trip Planner

Search our weather history database for the weather conditions in past years. The results will help you decide how hot, cold, wet, or windy it might be!

Date:

Astronomy

Oct. 25, 2013 Rise Set
Actual Time 7:16 AM CDT 5:55 PM CDT
Civil Twilight 6:47 AM CDT 6:24 PM CDT
Nautical Twilight 6:15 AM CDT 6:56 PM CDT
Astronomical Twilight 5:43 AM CDT 7:28 PM CDT
Moon 11:14 PM CDT (10/25) 12:57 PM CDT (10/25)
Length of Visible Light 11h 36m
Length of Day
10h 39m
Waning Gibbous, 62% of the Moon is Illuminated
Oct 25
Waning Gibbous
Oct 26
Last Quarter
Nov 3
New
Nov 9
First Quarter
Nov 17
Full

Hourly Weather History & Observations

Time (CDT) Temp. Windchill Dew Point Humidity Pressure Visibility Wind Dir Wind Speed Gust Speed Precip Events Conditions
12:15 AM 30.0 °F 25.2 °F 24.8 °F 81% 30.31 in 10.0 mi WNW 4.6 mph - N/A   Clear
12:35 AM 29.3 °F 23.2 °F 24.4 °F 82% 30.32 in 10.0 mi West 5.8 mph - N/A   Clear
12:55 AM 29.3 °F 23.2 °F 24.3 °F 81% 30.32 in 10.0 mi West 5.8 mph - N/A   Clear
1:15 AM 28.4 °F 22.2 °F 24.4 °F 85% 30.32 in 10.0 mi West 5.8 mph - N/A   Clear
1:35 AM 28.4 °F 22.2 °F 24.4 °F 85% 30.33 in 10.0 mi West 5.8 mph - N/A   Clear
1:55 AM 28.2 °F 21.0 °F 24.6 °F 86% 30.34 in 10.0 mi West 6.9 mph - N/A   Clear
2:15 AM 28.4 °F 22.2 °F 24.8 °F 86% 30.34 in 10.0 mi West 5.8 mph - N/A   Clear
2:35 AM 28.0 °F 20.8 °F 24.6 °F 87% 30.34 in 10.0 mi West 6.9 mph - N/A   Clear
2:55 AM 28.0 °F 21.7 °F 24.1 °F 85% 30.34 in 10.0 mi West 5.8 mph - N/A   Clear
3:15 AM 27.5 °F 21.1 °F 23.9 °F 86% 30.35 in 10.0 mi West 5.8 mph - N/A   Clear
3:35 AM 27.5 °F 22.2 °F 24.3 °F 88% 30.35 in 10.0 mi West 4.6 mph - N/A   Clear
3:55 AM 27.5 °F 21.1 °F 24.1 °F 87% 30.35 in 10.0 mi West 5.8 mph - N/A   Clear
4:15 AM 27.5 °F 21.1 °F 23.9 °F 86% 30.35 in 10.0 mi West 5.8 mph - N/A   Clear
4:35 AM 27.1 °F 20.7 °F 23.5 °F 86% 30.35 in 10.0 mi West 5.8 mph - N/A   Clear
4:55 AM 26.2 °F 20.7 °F 23.0 °F 88% 30.36 in 10.0 mi West 4.6 mph - N/A   Clear
5:15 AM 26.1 °F 19.4 °F 23.0 °F 88% 30.37 in 10.0 mi West 5.8 mph - N/A   Clear
5:35 AM 27.3 °F 20.9 °F 23.9 °F 87% 30.37 in 10.0 mi West 5.8 mph - N/A   Clear
5:55 AM 27.3 °F 20.9 °F 23.5 °F 86% 30.38 in 10.0 mi West 5.8 mph - N/A   Clear
6:15 AM 23.9 °F 19.5 °F 21.6 °F 91% 30.39 in 10.0 mi WSW 3.5 mph - N/A   Clear
6:35 AM 25.0 °F - 23.5 °F 94% 30.38 in 10.0 mi Calm Calm - N/A   Clear
6:55 AM 23.4 °F - 21.0 °F 91% 30.38 in 10.0 mi Calm Calm - N/A   Clear
7:15 AM 23.5 °F 19.1 °F 22.1 °F 94% 30.39 in 10.0 mi WSW 3.5 mph - N/A   Clear
7:35 AM 23.7 °F 19.3 °F 22.3 °F 94% 30.39 in 10.0 mi South 3.5 mph - N/A   Clear
7:55 AM 25.5 °F 19.9 °F 23.9 °F 94% 30.40 in 10.0 mi SSW 4.6 mph - N/A   Clear
8:15 AM 27.3 °F - 25.0 °F 91% 30.41 in 10.0 mi Calm Calm - N/A   Clear
8:35 AM 29.3 °F 25.6 °F 25.9 °F 87% 30.42 in 10.0 mi SW 3.5 mph - N/A   Clear
8:55 AM 30.2 °F - 25.5 °F 83% 30.42 in 10.0 mi Calm Calm - N/A   Clear
9:15 AM 32.0 °F 28.7 °F 26.2 °F 79% 30.42 in 10.0 mi WSW 3.5 mph - N/A   Clear
9:35 AM 34.2 °F 31.2 °F 27.1 °F 75% 30.41 in 10.0 mi WSW 3.5 mph - N/A   Clear
9:55 AM 35.8 °F 33.0 °F 27.5 °F 72% 30.41 in 10.0 mi WSW 3.5 mph - N/A   Clear
10:15 AM 37.6 °F 34.0 °F 27.7 °F 67% 30.41 in 10.0 mi WSW 4.6 mph - N/A   Clear
10:35 AM 40.3 °F 36.3 °F 28.4 °F 63% 30.41 in 10.0 mi SW 5.8 mph - N/A   Scattered Clouds
10:55 AM 41.7 °F 38.0 °F 28.4 °F 59% 30.40 in 10.0 mi WSW 5.8 mph - N/A   Mostly Cloudy
11:15 AM 43.7 °F 38.6 °F 28.0 °F 54% 30.40 in 10.0 mi West 9.2 mph - N/A   Mostly Cloudy
11:35 AM 43.5 °F 39.4 °F 28.2 °F 55% 30.39 in 10.0 mi West 6.9 mph - N/A   Overcast
11:55 AM 45.1 °F 39.9 °F 27.0 °F 49% 30.38 in 10.0 mi WSW 10.4 mph - N/A   Scattered Clouds
12:15 PM 46.4 °F 42.4 °F 26.2 °F 45% 30.37 in 10.0 mi SW 8.1 mph - N/A   Clear
12:35 PM 48.6 °F - 25.3 °F 40% 30.35 in 10.0 mi WSW 12.7 mph - N/A   Clear
12:55 PM 48.7 °F - 25.5 °F 40% 30.34 in 10.0 mi West 12.7 mph 19.6 mph N/A   Clear
1:15 PM 49.5 °F - 25.7 °F 40% 30.33 in 10.0 mi West 15.0 mph 19.6 mph N/A   Scattered Clouds
1:35 PM 50.0 °F - 25.3 °F 38% 30.32 in 10.0 mi West 15.0 mph 23.0 mph N/A   Scattered Clouds
1:55 PM 50.2 °F - 25.2 °F 38% 30.30 in 10.0 mi WSW 17.3 mph 23.0 mph N/A   Scattered Clouds
2:15 PM 49.5 °F - 25.3 °F 39% 30.29 in 10.0 mi WSW 13.8 mph 18.4 mph N/A   Scattered Clouds
2:35 PM 49.1 °F - 24.8 °F 39% 30.28 in 10.0 mi West 10.4 mph - N/A   Mostly Cloudy
2:55 PM 50.4 °F - 25.3 °F 38% 30.27 in 10.0 mi WSW 11.5 mph 19.6 mph N/A   Mostly Cloudy
3:15 PM 49.6 °F - 25.3 °F 39% 30.26 in 10.0 mi West 12.7 mph - N/A   Scattered Clouds
3:35 PM 50.9 °F - 24.8 °F 36% 30.25 in 10.0 mi West 12.7 mph 19.6 mph N/A   Clear
3:55 PM 50.5 °F - 25.5 °F 38% 30.24 in 10.0 mi WSW 9.2 mph - N/A   Scattered Clouds
4:15 PM 50.4 °F - 25.0 °F 37% 30.23 in 10.0 mi West 12.7 mph 18.4 mph N/A   Scattered Clouds
4:35 PM 50.2 °F - 25.0 °F 37% 30.22 in 10.0 mi WSW 13.8 mph 21.9 mph N/A   Clear
4:55 PM 50.0 °F - 23.7 °F 36% 30.22 in 10.0 mi WSW 13.8 mph 21.9 mph N/A   Clear
5:15 PM 49.3 °F - 23.9 °F 37% 30.21 in 10.0 mi WSW 11.5 mph 18.4 mph N/A   Clear
5:35 PM 48.2 °F - 24.3 °F 39% 30.20 in 10.0 mi WSW 10.4 mph 16.1 mph N/A   Clear
5:55 PM 47.3 °F - 24.8 °F 41% 30.19 in 10.0 mi WSW 10.4 mph - N/A   Clear
6:15 PM 46.4 °F 41.5 °F 25.5 °F 44% 30.19 in 10.0 mi SW 10.4 mph - N/A   Clear
6:35 PM 45.5 °F 40.8 °F 25.5 °F 46% 30.18 in 10.0 mi SW 9.2 mph - N/A   Clear
6:55 PM 43.2 °F 37.9 °F 26.6 °F 52% 30.17 in 10.0 mi SSW 9.2 mph - N/A   Clear
7:15 PM 43.9 °F 38.3 °F 26.6 °F 51% 30.16 in 10.0 mi SSW 10.4 mph - N/A   Clear
7:35 PM 44.1 °F 38.6 °F 26.2 °F 50% 30.16 in 10.0 mi SW 10.4 mph - N/A   Clear
7:55 PM 44.1 °F 38.1 °F 25.7 °F 49% 30.15 in 10.0 mi SW 11.5 mph - N/A   Clear
8:15 PM 43.9 °F 37.5 °F 26.1 °F 50% 30.14 in 10.0 mi SW 12.7 mph - N/A   Clear
8:35 PM 44.4 °F 37.2 °F 26.1 °F 49% 30.13 in 10.0 mi SW 16.1 mph 20.7 mph N/A   Clear
8:55 PM 45.0 °F 38.5 °F 25.5 °F 47% 30.13 in 10.0 mi SW 13.8 mph 24.2 mph N/A   Mostly Cloudy
9:15 PM 45.1 °F 37.3 °F 25.5 °F 46% 30.12 in 10.0 mi SW 19.6 mph 25.3 mph N/A   Mostly Cloudy
9:35 PM 45.5 °F 38.3 °F 25.5 °F 46% 30.12 in 10.0 mi SW 17.3 mph 21.9 mph N/A   Overcast
9:55 PM 45.1 °F 38.4 °F 25.5 °F 46% 30.12 in 10.0 mi SW 15.0 mph 23.0 mph N/A   Overcast
10:15 PM 44.6 °F 36.9 °F 25.3 °F 47% 30.10 in 10.0 mi SW 18.4 mph 23.0 mph N/A   Scattered Clouds
10:35 PM 44.1 °F 36.8 °F 25.7 °F 49% 30.09 in 10.0 mi SW 16.1 mph 24.2 mph N/A   Clear
10:55 PM 43.2 °F 35.9 °F 25.5 °F 50% 30.09 in 10.0 mi SW 15.0 mph 27.6 mph N/A   Clear
11:15 PM 42.8 °F 34.8 °F 25.7 °F 51% 30.09 in 10.0 mi SW 17.3 mph 23.0 mph N/A   Clear
11:35 PM 42.8 °F 36.2 °F 25.9 °F 51% 30.09 in 10.0 mi SW 12.7 mph 26.5 mph N/A   Clear
11:55 PM 42.1 °F 33.9 °F 26.4 °F 54% 30.07 in 10.0 mi SW 17.3 mph 23.0 mph N/A   Clear